Location: Davidschlag
(48.4333°N, 14.2833°E)
Time: 20:44:53
(UTC+00:00)

NOSS 2-3 (C) - Pass Details

Date: 27 February 2020
Orbit: 585 x 1627 km, 63.4° (Epoch: 26 March)

Event Time Altitude Azimuth Distance (km) Brightness Sun altitude
Rises 17:50:58 0° 235° (SW) 2,843 7.9 -12.1°
Reaches altitude 10° 17:53:06 10° 240° (WSW) 1,993 7.1 -12.4°
Maximum altitude 17:57:26 55° 319° (NW) 839 4.5 -13.2°
Drops below altitude 10° 18:02:44 10° 37° (NE) 2,419 6.3 -14.0°
Enters shadow 18:04:31 - 40° (NE) 3,116 6.8 -14.3°
